E24TVS-1 Weather Reports


time (UTC)temp
F
wind
direction
speed
knots
gust
knots
rain 1hr
in
rain 24hr
in
rain mn
in
humidity
%
barometer
mb
20260504150634 89 0 0.0 0.0 0.00 0.00 0.00 61 991.0
20260504140531 90 0 0.0 0.0 0.00 0.00 0.00 58 990.0
20260504140420 90 0 0.0 0.0 0.00 0.00 0.00 58 990.0
20260504140106 90 0 0.0 0.0 0.00 0.00 0.00 57 990.0
20260504130810 91 0 0.0 0.0 0.00 0.00 0.00 54 989.0
20260504130206 91 0 0.0 0.0 0.00 0.00 0.00 54 989.0
20260504081933 94 0 0.0 0.0 0.00 0.00 0.00 49 988.0
20260504080910 93 0 0.0 0.0 0.00 0.00 0.00 49 988.0
20260504050227 91 0 0.0 0.0 0.00 0.00 0.00 52 992.0
20260504045205 91 0 0.0 0.0 0.00 0.00 0.00 52 992.0
20260504044142 91 0 0.0 0.0 0.00 0.00 0.00 54 992.0
20260504043120 91 0 0.0 0.0 0.00 0.00 0.00 54 992.0
20260504042057 90 0 0.0 0.0 0.00 0.00 0.00 55 992.0
20260504041034 90 0 0.0 0.0 0.00 0.00 0.00 55 993.0
20260504040012 90 0 0.0 0.0 0.00 0.00 0.00 55 993.0
20260504034949 90 0 0.0 0.0 0.00 0.00 0.00 56 993.0
20260504033926 89 0 0.0 0.0 0.00 0.00 0.00 59 993.0
20260504032903 89 0 0.0 0.0 0.00 0.00 0.00 60 993.0
20260504031841 89 0 0.0 0.0 0.00 0.00 0.00 61 993.0
20260504030818 89 0 0.0 0.0 0.00 0.00 0.00 61 993.0
20260504025756 88 0 0.0 0.0 0.00 0.00 0.00 63 993.0
20260504024734 88 0 0.0 0.0 0.00 0.00 0.00 62 993.0
20260504023711 88 0 0.0 0.0 0.00 0.00 0.00 61 994.0
20260504022649 88 0 0.0 0.0 0.00 0.00 0.00 62 994.0
20260504021626 89 0 0.0 0.0 0.00 0.00 0.00 62 993.0
20260504020603 89 0 0.0 0.0 0.00 0.00 0.00 62 993.0
20260504015540 89 0 0.0 0.0 0.00 0.00 0.00 62 993.0
20260504014518 89 0 0.0 0.0 0.00 0.00 0.00 62 993.0
20260504013455 88 0 0.0 0.0 0.00 0.00 0.00 62 993.0
20260504012433 88 0 0.0 0.0 0.00 0.00 0.00 63 993.0
20260504011411 88 0 0.0 0.0 0.00 0.00 0.00 63 993.0
20260504010348 88 0 0.0 0.0 0.00 0.00 0.00 63 993.0
20260504005326 88 0 0.0 0.0 0.00 0.00 0.00 63 993.0
20260504004303 87 0 0.0 0.0 0.00 0.00 0.00 65 993.0
20260504003241 86 0 0.0 0.0 0.00 0.00 0.00 66 992.0
20260504002219 86 0 0.0 0.0 0.00 0.00 0.00 66 992.0
20260504001156 85 0 0.0 0.0 0.00 0.00 0.00 69 992.0
20260504000133 85 0 0.0 0.0 0.00 0.00 0.00 68 992.0
20260503235111 84 0 0.0 0.0 0.00 0.00 0.00 69 992.0
20260503234048 83 0 0.0 0.0 0.00 0.00 0.00 72 991.0
20260503233026 83 0 0.0 0.0 0.00 0.00 0.00 73 991.0
20260503232003 82 0 0.0 0.0 0.00 0.00 0.00 75 991.0
20260503230940 81 0 0.0 0.0 0.00 0.00 0.00 77 991.0
20260503225918 81 0 0.0 0.0 0.00 0.00 0.00 77 991.0
20260503224855 81 0 0.0 0.0 0.00 0.00 0.00 77 991.0
20260503223833 81 0 0.0 0.0 0.00 0.00 0.00 77 990.0
20260503222810 81 0 0.0 0.0 0.00 0.00 0.00 77 991.0
20260503221747 81 0 0.0 0.0 0.00 0.00 0.00 78 990.0
20260503220725 81 0 0.0 0.0 0.00 0.00 0.00 77 990.0
20260503215702 81 0 0.0 0.0 0.00 0.00 0.00 76 990.0
20260503214640 81 0 0.0 0.0 0.00 0.00 0.00 75 990.0
20260503213618 81 0 0.0 0.0 0.00 0.00 0.00 76 990.0
20260503212555 82 0 0.0 0.0 0.00 0.00 0.00 74 990.0
20260503211532 82 0 0.0 0.0 0.00 0.00 0.00 74 990.0
20260503210510 83 0 0.0 0.0 0.00 0.00 0.00 72 989.0
20260503205447 83 0 0.0 0.0 0.00 0.00 0.00 73 989.0
20260503204424 83 0 0.0 0.0 0.00 0.00 0.00 73 989.0
20260503203402 83 0 0.0 0.0 0.00 0.00 0.00 74 989.0
20260503202339 84 0 0.0 0.0 0.00 0.00 0.00 70 989.0
20260503201317 86 0 0.0 0.0 0.00 0.00 0.00 68 989.0
20260503200254 85 0 0.0 0.0 0.00 0.00 0.00 69 989.0
20260503195232 84 0 0.0 0.0 0.00 0.00 0.00 72 989.0
20260503194210 84 0 0.0 0.0 0.00 0.00 0.00 70 989.0
20260503193147 86 0 0.0 0.0 0.00 0.00 0.00 67 989.0
20260503192124 87 0 0.0 0.0 0.00 0.00 0.00 62 989.0
20260503191102 87 0 0.0 0.0 0.00 0.00 0.00 61 989.0
20260503190040 87 0 0.0 0.0 0.00 0.00 0.00 62 989.0
20260503185017 85 0 0.0 0.0 0.00 0.00 0.00 64 989.0
20260503183954 85 0 0.0 0.0 0.00 0.00 0.00 64 989.0
20260503182931 85 0 0.0 0.0 0.00 0.00 0.00 64 989.0
20260503181908 84 0 0.0 0.0 0.00 0.00 0.00 64 989.0
20260503180845 85 0 0.0 0.0 0.00 0.00 0.00 63 990.0
20260503175823 85 0 0.0 0.0 0.00 0.00 0.00 63 990.0
20260503174800 86 0 0.0 0.0 0.00 0.00 0.00 60 990.0
20260503173737 86 0 0.0 0.0 0.00 0.00 0.00 60 990.0
20260503172715 85 0 0.0 0.0 0.00 0.00 0.00 61 990.0
20260503171652 85 0 0.0 0.0 0.00 0.00 0.00 61 990.0
20260503170629 84 0 0.0 0.0 0.00 0.00 0.00 63 990.0